Lambertville, OH

11:54 PM EDT on March 27, 2017 (GMT -0400)
Lambertville

Weather History for KDUH - May, 2014

Change the Weather History Date:

Saturday, May 17, 2014

  Actual Average (KTOL) Record (KTOL)
Temperature  
Mean Temperature 50 °F -  
Max Temperature 57 °F 72 °F 95 °F (1962)
Min Temperature 44 °F 47 °F 30 °F (1973)
Degree Days  
Heating Degree Days 14    
Moisture  
Dew Point 37 °F    
Average Humidity 64    
Maximum Humidity 87    
Minimum Humidity 38    
Precipitation  
Precipitation 0.00 in - - ()
Sea Level Pressure  
Sea Level Pressure 30.10 in    
Wind  
Wind Speed 3 mph (West)    
Max Wind Speed 13 mph    
Max Gust Speed 18 mph    
Visibility 10 miles    
Events Rain    
Averages and records for this station are not official NWS values.
T = Trace of Precipitation, MM = Missing Value Source: NWS Daily Summary

Daily Weather History Graph

Daily Weather History Graph

Search for Another Location

Airport or City:

Trip Planner

Search our weather history database for the weather conditions in past years. The results will help you decide how hot, cold, wet, or windy it might be!

Date:

Astronomy

May. 17, 2014 Rise Set
Actual Time 6:12 AM EDT 8:49 PM EDT
Civil Twilight 5:41 AM EDT 9:21 PM EDT
Nautical Twilight 5:01 AM EDT 10:01 PM EDT
Astronomical Twilight 4:15 AM EDT 10:47 PM EDT
Moon 11:49 PM EDT (5/17) 8:54 AM EDT (5/17)
Length of Visible Light 15h 40m
Length of Day
14h 36m
Waning Gibbous, 89% of the Moon is Illuminated
May 17
Waning Gibbous
May 21
Last Quarter
May 28
New
Jun 5
First Quarter
Jun 13
Full

Hourly Weather History & Observations

Time (EDT) Temp. Windchill Dew Point Humidity Pressure Visibility Wind Dir Wind Speed Gust Speed Precip Events Conditions
12:15 AM 48.2 °F - 37.4 °F 66% 30.01 in 10.0 mi Calm Calm - N/A   Mostly Cloudy
12:35 AM 48.2 °F - 35.6 °F 62% 30.02 in 10.0 mi Calm Calm - N/A   Overcast
12:55 AM 48.2 °F - 37.4 °F 66% 30.02 in 10.0 mi Calm Calm - N/A   Mostly Cloudy
1:15 AM 46.4 °F - 37.4 °F 71% 30.02 in 10.0 mi Calm Calm - N/A   Overcast
1:35 AM 48.2 °F - 37.4 °F 66% 30.02 in 10.0 mi Calm Calm - N/A   Overcast
1:55 AM 48.2 °F - 37.4 °F 66% 30.02 in 10.0 mi Calm Calm - N/A   Overcast
2:15 AM 48.2 °F - 37.4 °F 66% 30.02 in 10.0 mi NW 4.6 mph - N/A   Overcast
2:35 AM 46.4 °F 44.3 °F 39.2 °F 76% 30.02 in 10.0 mi WNW 4.6 mph - N/A   Drizzle
2:55 AM 46.4 °F 45.2 °F 41.0 °F 81% 30.03 in 10.0 mi West 3.5 mph - N/A Rain Light Rain
3:15 AM 44.6 °F 42.2 °F 41.0 °F 87% 30.03 in 10.0 mi West 4.6 mph - N/A Rain Light Rain
3:35 AM 44.6 °F 42.2 °F 41.0 °F 87% 30.02 in 10.0 mi West 4.6 mph - N/A Rain Light Rain
3:55 AM 44.6 °F - 41.0 °F 87% 30.02 in 10.0 mi Calm Calm - N/A   Light Drizzle
4:15 AM 44.6 °F - 39.2 °F 81% 30.03 in 10.0 mi Calm Calm - N/A   Mostly Cloudy
4:35 AM 44.6 °F - 39.2 °F 81% 30.03 in 10.0 mi Calm Calm - N/A   Overcast
4:55 AM 44.6 °F 43.1 °F 39.2 °F 81% 30.03 in 10.0 mi NW 3.5 mph - N/A   Overcast
5:15 AM 44.6 °F 42.2 °F 37.4 °F 76% 30.03 in 10.0 mi NW 4.6 mph - N/A   Overcast
5:35 AM 44.6 °F 42.2 °F 37.4 °F 76% 30.03 in 10.0 mi NW 4.6 mph - N/A   Overcast
5:55 AM 44.6 °F 42.2 °F 37.4 °F 76% 30.03 in 10.0 mi NW 4.6 mph - N/A   Overcast
6:15 AM 44.6 °F - 37.4 °F 76% 30.04 in 10.0 mi Calm Calm - N/A   Overcast
6:35 AM 44.6 °F - 37.4 °F 76% 30.05 in 10.0 mi Calm Calm - N/A   Overcast
6:55 AM 44.6 °F - 37.4 °F 76% 30.05 in 10.0 mi Calm Calm - N/A   Overcast
7:15 AM 44.6 °F 43.1 °F 37.4 °F 76% 30.06 in 10.0 mi NNW 3.5 mph - N/A   Overcast
7:35 AM 44.6 °F 42.2 °F 37.4 °F 76% 30.06 in 10.0 mi NNW 4.6 mph - N/A   Overcast
7:55 AM 44.6 °F 42.2 °F 37.4 °F 76% 30.07 in 10.0 mi NW 4.6 mph - N/A   Overcast
8:15 AM 44.6 °F 43.1 °F 37.4 °F 76% 30.08 in 10.0 mi NW 3.5 mph - N/A   Overcast
8:35 AM 44.6 °F 42.2 °F 37.4 °F 76% 30.08 in 10.0 mi NW 4.6 mph - N/A   Overcast
8:55 AM 44.6 °F 41.4 °F 37.4 °F 76% 30.10 in 10.0 mi NW 5.8 mph - N/A   Overcast
9:15 AM 46.4 °F 42.4 °F 37.4 °F 71% 30.10 in 10.0 mi NW 8.1 mph - N/A   Overcast
9:35 AM 46.4 °F 42.9 °F 37.4 °F 71% 30.11 in 10.0 mi WNW 6.9 mph - N/A   Overcast
9:55 AM 46.4 °F 44.3 °F 37.4 °F 71% 30.11 in 10.0 mi WNW 4.6 mph - N/A   Overcast
10:15 AM 46.4 °F 43.5 °F 37.4 °F 71% 30.11 in 10.0 mi NNW 5.8 mph - N/A   Overcast
10:35 AM 46.4 °F 42.4 °F 37.4 °F 71% 30.12 in 10.0 mi West 8.1 mph - N/A   Overcast
10:55 AM 48.2 °F - 37.4 °F 66% 30.12 in 10.0 mi West 6.9 mph - N/A   Overcast
11:15 AM 48.2 °F - 37.4 °F 66% 30.13 in 10.0 mi West 5.8 mph - N/A   Overcast
11:35 AM 50.0 °F - 37.4 °F 62% 30.12 in 10.0 mi Calm Calm - N/A   Mostly Cloudy
11:55 AM 51.8 °F - 37.4 °F 58% 30.13 in 10.0 mi West 5.8 mph - N/A   Overcast
12:15 PM 51.8 °F - 35.6 °F 54% 30.13 in 10.0 mi WSW 3.5 mph - N/A   Overcast
12:35 PM 51.8 °F - 35.6 °F 54% 30.13 in 10.0 mi WSW 5.8 mph - N/A   Mostly Cloudy
12:55 PM 51.8 °F - 33.8 °F 50% 30.13 in 10.0 mi NNW 4.6 mph - N/A   Mostly Cloudy
1:15 PM 53.6 °F - 35.6 °F 51% 30.13 in 10.0 mi NW 6.9 mph - N/A   Overcast
1:35 PM 51.8 °F - 33.8 °F 50% 30.13 in 10.0 mi West 8.1 mph - N/A   Mostly Cloudy
1:55 PM 55.4 °F - 35.6 °F 47% 30.13 in 10.0 mi WNW 10.4 mph - N/A   Mostly Cloudy
2:15 PM 53.6 °F - 33.8 °F 47% 30.12 in 10.0 mi West 5.8 mph - N/A   Mostly Cloudy
2:35 PM 55.4 °F - 32.0 °F 41% 30.12 in 10.0 mi NNW 4.6 mph - N/A   Scattered Clouds
2:55 PM 55.4 °F - 32.0 °F 41% 30.12 in 10.0 mi West 4.6 mph 16.1 mph N/A   Scattered Clouds
3:15 PM 57.2 °F - 32.0 °F 38% 30.12 in 10.0 mi West 9.2 mph - N/A   Scattered Clouds
3:35 PM 55.4 °F - 32.0 °F 41% 30.13 in 10.0 mi West 12.7 mph - N/A   Mostly Cloudy
3:55 PM 53.6 °F - 33.8 °F 47% 30.14 in 10.0 mi WNW 9.2 mph - N/A   Overcast
4:15 PM 55.4 °F - 32.0 °F 41% 30.13 in 10.0 mi West 8.1 mph - N/A   Mostly Cloudy
4:35 PM 55.4 °F - 33.8 °F 44% 30.13 in 10.0 mi West 10.4 mph - N/A   Mostly Cloudy
4:55 PM 55.4 °F - 33.8 °F 44% 30.13 in 10.0 mi West 11.5 mph - N/A   Mostly Cloudy
5:15 PM 55.4 °F - 33.8 °F 44% 30.13 in 10.0 mi West 9.2 mph 16.1 mph N/A   Mostly Cloudy
5:35 PM 55.4 °F - 33.8 °F 44% 30.13 in 10.0 mi WNW 11.5 mph - N/A   Mostly Cloudy
5:55 PM 55.4 °F - 32.0 °F 41% 30.14 in 10.0 mi West 10.4 mph 18.4 mph N/A   Mostly Cloudy
6:15 PM 53.6 °F - 33.8 °F 47% 30.14 in 10.0 mi West 9.2 mph - N/A   Overcast
6:35 PM 53.6 °F - 33.8 °F 47% 30.15 in 10.0 mi West 6.9 mph - N/A   Overcast
6:55 PM 53.6 °F - 33.8 °F 47% 30.14 in 10.0 mi West 6.9 mph - N/A   Mostly Cloudy
7:15 PM 53.6 °F - 35.6 °F 51% 30.15 in 10.0 mi SSW 9.2 mph - N/A   Clear
7:35 PM 51.8 °F - 35.6 °F 54% 30.15 in 10.0 mi WSW 5.8 mph - N/A   Clear
7:55 PM 51.8 °F - 35.6 °F 54% 30.16 in 10.0 mi WSW 6.9 mph - N/A   Clear
8:15 PM 51.8 °F - 37.4 °F 58% 30.17 in 10.0 mi WSW 4.6 mph - N/A   Clear
8:35 PM 51.8 °F - 37.4 °F 58% 30.17 in 10.0 mi Calm Calm - N/A   Mostly Cloudy
8:55 PM 50.0 °F - 37.4 °F 62% 30.17 in 10.0 mi SW 3.5 mph - N/A   Overcast
9:15 PM 50.0 °F - 37.4 °F 62% 30.18 in 10.0 mi SSW 3.5 mph - N/A   Scattered Clouds
9:35 PM 46.4 °F - 37.4 °F 71% 30.18 in 10.0 mi Calm Calm - N/A   Clear
9:55 PM 46.4 °F - 37.4 °F 71% 30.19 in 10.0 mi Calm Calm - N/A   Clear
10:15 PM 44.6 °F 43.1 °F 37.4 °F 76% 30.19 in 10.0 mi SSW 3.5 mph - N/A   Clear
10:35 PM 46.4 °F 45.2 °F 37.4 °F 71% 30.20 in 10.0 mi SSW 3.5 mph - N/A   Clear
10:55 PM 46.4 °F 45.2 °F 37.4 °F 71% 30.20 in 10.0 mi SSW 3.5 mph - N/A   Clear
11:15 PM 46.4 °F 45.2 °F 37.4 °F 71% 30.20 in 10.0 mi SSW 3.5 mph - N/A   Clear
11:35 PM 44.6 °F 43.1 °F 37.4 °F 76% 30.20 in 10.0 mi SSW 3.5 mph - N/A   Clear
11:55 PM 44.6 °F 43.1 °F 37.4 °F 76% 30.21 in 10.0 mi SW 3.5 mph - N/A   Clear